Location: El Abasto
(10.3790°N, 67.5897°W)
Time: 07:16:45
(UTC+00:00)

Cosmos 1862 - Pass Details

Date: 19 May 2024
Orbit: 508 x 525 km, 82.5° (Epoch: 22 June)

Event Time Altitude Azimuth Distance (km) Brightness Sun altitude
Rises 23:35:52 0° 355° (N) 2,603 7.2 -12.2°
Reaches altitude 10° 23:37:59 10° 355° (N) 1,718 6.2 -12.7°
Maximum altitude 23:41:45 85° 265° (W) 512 3.1 -13.6°
Drops below altitude 10° 23:45:31 10° 178° (S) 1,719 5.6 -14.4°
Enters shadow 23:46:38 - 177° (S) 2,185 6.1 -14.7°
